Miscellaneous Local Product
Issued by NWS North Platte, NE

Home | Current Version | Previous Version | Text Only | Print | Product List | Glossary On
Versions: 1 2 3 4 5 6 7 8 9 10 11 12 13 14 15 16 17 18 19 20 21 22 23 24 25 26 27 28 29 30 31 32 33 34 35 36 37 38 39 40 41 42 43 44 45 46 47 48 49 50
000
AXUS43 KLBF 251610
MISLBF


WESTERN AND NORTH CENTRAL NEBRASKA HOURLY WEATHER ROUNDUP
NATIONAL WEATHER SERVICE NORTH PLATTE NE
1000 AM CST SAT FEB 25 2017

NOTE: "FAIR" INDICATES FEW OR NO CLOUDS BELOW 12,000 FEET WITH NO
SIGNIFICANT WEATHER AND/OR OBSTRUCTIONS TO VISIBILITY.

NOTE: STATIONS NOT REPORTING VARIABLES SUCH AS SKY/WEATHER OR
PRESSURE ARE PROVIDED BY RAWS AND APRS NETWORKS AND ARE NOT UNDER
NATIONAL WEATHER SERVICE QUALITY CONTROL.

...OBSERVATIONS IN AND NEAR THE EASTERN PANHANDLE OF NEBRASKA...

CITY           SKY/WX    TMP DP  RH WIND       PRES   REMARKS
PINE RIDGE     SUNNY     17  11  77 W12       29.93F WCI   4
CHADRON        SUNNY     15  10  80 SW7       29.94F WCI   5
ALLIANCE       SUNNY      9   5  84 W13       29.91F WCI  -7
SIDNEY         SUNNY     20  10  65 W20       29.94F WCI   4
CRESCENT LAKE    N/A     16  13  86 W6          N/A  WCI   8
$$

...OBSERVATIONS IN NORTHERN NEBRASKA AND FAR SOUTHERN SOUTH DAKOTA...

CITY           SKY/WX    TMP DP  RH WIND       PRES   REMARKS
WINNER         CLOUDY    20  12  71 SW14      29.94F WCI   7
VALENTINE      SUNNY      7   2  80 SW7       29.94F WCI  -5
THEDFORD       CLOUDY    16  14  90 W7        29.96F WCI   7
AINSWORTH      SUNNY     17  13  84 SW15      29.94F WCI   2
O`NEILL        CLOUDY    18  11  75 SW9       30.02F WCI   7
ORD            CLOUDY    13   9  84 SE3       30.04F
BROKEN BOW     PTSUNNY   20  14  77 SW8       30.01F WCI  10
VALENTINE NWR    N/A     13   9  82 SW6G13      N/A  WCI   4
BUTTE            N/A     15  10  82 S9          N/A  WCI   3
HALSEY           N/A     19  13  79 SW6G14      N/A  WCI  11
CHAMBERS         N/A     21   8  57 SW7         N/A  WCI  12
EWING            N/A     15  10  82 S5          N/A  WCI   8
$$

...OBSERVATIONS IN SOUTHWEST NEBRASKA AND FAR NORTHEAST COLORADO...

CITY           SKY/WX    TMP DP  RH WIND       PRES   REMARKS
HOLYOKE        FAIR      30  18  59 W14       29.97F WCI  20
IMPERIAL       SUNNY     23  16  74 W10       29.99F WCI  12
OGALLALA       SUNNY     17  15  90 W8        29.98F WCI   6
NORTH PLATTE   SUNNY     19  13  77 SW8       30.01F WCI   9
MCCOOK         SUNNY     28  21  75 SW15      30.04F WCI  16
LEXINGTON      SUNNY     25  15  64 SW7       30.05F WCI  17
STAPLETON        N/A     18  14  83 CALM        N/A
GOTHENBURG       N/A     25  16  68 S5          N/A  WCI  19
CALLAWAY         N/A     21  17  83 SW15        N/A  WCI   8
$$

...OBSERVATIONS IN CENTRAL LINCOLN COUNTY AREA...

CITY           SKY/WX    TMP DP  RH WIND       PRES   REMARKS
N.P. AIRPORT   SUNNY     19  13  77 SW8       30.01F WCI   9
N.P. DOWNTOWN    N/A     18  11  74 W3          N/A
N.P. SOUTHEAST   N/A     18  13  80 SW3         N/A
N.P. HILLCREST   N/A     18  15  88 W7          N/A  WCI   9
$$

...SOME OBSERVATIONS FROM AROUND THE REGION...

CITY           SKY/WX    TMP DP  RH WIND       PRES   REMARKS
LARAMIE        CLOUDY    13   0  56 SW15      29.84F WCI  -3
CHEYENNE       CLOUDY    18   3  52 W15G25    29.86F WCI   4
DENVER         CLOUDY    26   7  44 SW6       29.92F WCI  19
AKRON          SUNNY     22  16  78 W10       29.95F WCI  11
SCOTTSBLUFF    SUNNY      6   1  80 NW8       29.96F WCI  -7
RAPID CITY     CLOUDY    27  16  63 W3        29.88F
BISMARCK       LGT SNOW  24  21  88 W3        29.88F VSB 1
PIERRE         SUNNY     26  17  68 SW9       29.92F WCI  17
SIOUX FALLS    CLOUDY    21  16  81 W5        30.02F WCI  15
OMAHA          CLOUDY    24  15  68 NW3       30.14F
GRAND ISLAND   MOSUNNY   21  14  74 CALM      30.10F
KANSAS CITY    MOSUNNY   29  16  58 W9        30.17R WCI  20
WICHITA        MOSUNNY   30  16  56 NW6       30.22S WCI  24
OKLAHOMA CITY  MOSUNNY   34  19  54 N10       30.26R WCI  26
DALLAS         MOSUNNY   43  24  47 N9        30.27R
AMARILLO       SUNNY     32  20  61 S14       30.17S WCI  22
DODGE CITY     CLOUDY    28  15  58 SW8       30.15F WCI  20
HAYS           SUNNY     27  16  63 SW12      30.16F WCI  17
GOODLAND       SUNNY     28  21  75 SW17      30.01F WCI  16
$$




USA.gov is the U.S. government's official web portal to all federal, state and local government web resources and services.